Waarnemingen

Advertentie
Mijn weer
Nordkoster, Zweden (2500): temperatuur & dauwpunt: 18.01.2020 13:00:00 - 24.01.2020 13:00:00 (CET)Nordkoster, Zweden (2500): windsnelheid & windstoten: 18.01.2020 13:00:00 - 24.01.2020 13:00:00 (CET)Nordkoster, Zweden (2500): windrichting: 18.01.2020 13:00:00 - 24.01.2020 13:00:00 (CET)Nordkoster, Zweden (2500): luchtdruk: 18.01.2020 13:00:00 - 24.01.2020 13:00:00 (CET)Nordkoster, Zweden (2500): zicht: 18.01.2020 13:00:00 - 24.01.2020 13:00:00 (CET)Nordkoster, Zweden (2500): neerslag: 18.01.2020 13:00:00 - 24.01.2020 13:00:00 (CET)
Datum & Tijd tt [°C] td [°C] ff [km/u] ff [kn] fx [km/u] fx [kn] dd ppp [hPa] vv [km] rr [mm]
24.01.2020 13:00:00 - - - - - - - - - -
24.01.2020 12:00:00 7,1 4,2 25 13 40 22 WZW 1009,2 14 0,0
24.01.2020 11:00:00 6,6 4,4 26 14 45 24 WZW 1008,6 13 0,0
24.01.2020 10:00:00 6,7 4,4 23 13 48 26 WZW 1008,6 13 0,0
24.01.2020 09:00:00 6,8 4,5 29 16 48 26 WZW 1008,2 12 0,0
24.01.2020 08:00:00 6,9 4,7 33 18 51 27 WZW 1008,1 11 0,0
24.01.2020 07:00:00 6,9 5,4 32 17 51 28 WZW 1008,0 10 0,0
24.01.2020 06:00:00 6,9 5,2 35 19 54 29 WZW 1008,0 11 0,0
24.01.2020 05:00:00 6,9 5,1 35 19 - - WZW 1008,8 12 0,0
24.01.2020 04:00:00 6,9 5,2 34 18 - - WZW 1009,6 12 0,0
24.01.2020 03:00:00 6,6 5,1 31 17 51 28 WZW 1010,3 11 0,0
24.01.2020 02:00:00 6,7 5,0 31 17 49 26 WZW 1011,3 11 0,0
24.01.2020 01:00:00 7,0 4,8 30 16 51 27 WZW 1012,0 14 0,0
24.01.2020 00:00:00 7,0 4,7 34 18 54 29 WZW 1012,3 13 0,0
23.01.2020 23:00:00 6,9 4,6 33 18 54 29 ZW 1012,9 13 0,0
23.01.2020 22:00:00 7,0 4,7 29 16 45 24 WZW 1013,5 14 0,0
23.01.2020 21:00:00 6,7 4,9 25 14 44 24 WZW 1013,6 12 0,0
23.01.2020 20:00:00 6,6 5,2 31 17 46 25 WZW 1013,5 10 0,0
23.01.2020 19:00:00 7,0 5,1 33 18 47 25 WZW 1013,8 12 0,0
23.01.2020 18:00:00 7,1 5,4 36 19 52 28 WZW 1014,3 11 0,0
23.01.2020 17:00:00 6,9 5,5 27 15 42 23 WZW 1014,8 10 0,0
23.01.2020 16:00:00 6,4 5,7 26 14 50 27 ZW 1014,7 8 0,0
23.01.2020 15:00:00 7,0 5,8 29 16 48 26 ZW 1015,9 9 0,0
23.01.2020 14:00:00 7,1 5,7 28 15 51 28 WZW 1017,0 10 0,0
23.01.2020 13:00:00 7,1 5,4 33 18 54 29 WZW 1018,2 12 0,0
23.01.2020 12:00:00 7,2 5,0 38 21 55 30 WZW 1019,7 13 0,0
23.01.2020 11:00:00 6,6 4,6 29 16 48 26 WZW 1020,3 13 0,0
23.01.2020 10:00:00 5,9 4,2 32 18 46 25 WZW 1020,5 14 0,0
23.01.2020 09:00:00 5,4 3,4 29 15 45 24 WZW 1021,1 15 0,0
23.01.2020 08:00:00 5,1 2,5 30 16 47 25 WZW 1021,4 19 0,0
23.01.2020 07:00:00 4,6 0,9 19 10 28 15 ZW 1022,6 35 0,0
23.01.2020 06:00:00 4,5 -0,1 16 9 26 14 ZW 1023,5 40 0,0
23.01.2020 05:00:00 4,4 -0,2 16 8 29 16 ZW 1024,6 44 0,0
23.01.2020 04:00:00 4,5 0,1 20 11 29 16 ZW 1025,8 49 0,0
23.01.2020 03:00:00 4,6 2,3 16 9 24 13 ZZW 1027,2 39 0,0
23.01.2020 02:00:00 4,2 1,9 13 7 21 11 ZW 1028,1 42 0,0
23.01.2020 01:00:00 3,5 1,1 8 5 11 6 Z 1028,3 41 0,0
23.01.2020 00:00:00 3,6 0,8 5 3 15 8 Z 1029,0 43 0,0
22.01.2020 23:00:00 4,1 0,6 10 5 13 7 WZW 1029,9 46 0,0
22.01.2020 22:00:00 4,1 0,4 6 3 12 7 ZW 1029,8 41 0,0
22.01.2020 21:00:00 3,7 1,6 8 5 11 6 ZW 1029,7 26 0,0
22.01.2020 20:00:00 3,1 0,7 8 5 9 5 Z 1029,3 18 0,0
22.01.2020 19:00:00 4,0 -1,2 6 3 8 4 ZZW 1029,1 32 0,0
22.01.2020 18:00:00 4,0 -1,4 0 0 9 5 N 1028,3 46 0,0
22.01.2020 17:00:00 4,6 -2,7 8 5 17 9 N 1028,1 50 0,0
22.01.2020 16:00:00 4,7 -0,7 10 6 22 12 NNW 1028,0 29 0,0
22.01.2020 15:00:00 5,7 0,1 17 9 26 14 NW 1028,2 36 0,0
22.01.2020 14:00:00 5,9 0,0 18 10 26 14 WNW 1028,1 27 0,0
22.01.2020 13:00:00 6,1 -0,6 21 12 33 18 NW 1028,5 27 0,0
22.01.2020 12:00:00 6,2 -0,3 21 11 34 18 WNW 1028,4 30 0,0
22.01.2020 11:00:00 6,2 -0,5 27 15 36 19 WNW 1027,3 31 0,0
22.01.2020 10:00:00 6,0 -0,3 23 12 34 19 WNW 1026,2 38 0,0
22.01.2020 09:00:00 6,2 -1,9 32 18 42 23 WNW 1024,6 38 0,0
22.01.2020 08:00:00 6,2 -1,5 23 12 34 18 WNW 1024,0 36 0,0
22.01.2020 07:00:00 6,7 -2,0 28 15 38 21 WNW 1023,7 44 0,0
22.01.2020 06:00:00 5,9 2,2 25 14 41 22 W 1022,2 18 0,0
22.01.2020 05:00:00 5,8 2,4 32 17 48 26 W 1021,6 14 0,0
22.01.2020 04:00:00 5,7 2,3 32 18 47 26 W 1021,3 12 0,0
22.01.2020 03:00:00 5,9 2,4 37 20 53 28 W 1021,3 12 0,0
22.01.2020 02:00:00 5,9 2,0 37 20 55 30 W 1021,2 12 0,0
22.01.2020 01:00:00 5,8 1,9 34 18 54 29 W 1021,1 13 0,0
22.01.2020 00:00:00 5,9 1,6 39 21 56 30 W 1021,5 13 0,0
21.01.2020 23:00:00 6,0 1,7 36 20 53 29 W 1021,6 14 0,0
21.01.2020 22:00:00 5,9 1,6 31 17 49 26 W 1021,6 17 0,0
21.01.2020 21:00:00 6,2 1,5 29 16 44 24 W 1021,5 22 0,0
21.01.2020 20:00:00 6,6 0,9 26 14 42 23 W 1022,1 26 0,0
21.01.2020 19:00:00 6,9 -0,1 28 15 43 23 W 1021,6 37 0,0
21.01.2020 18:00:00 6,8 0,7 22 12 46 25 W 1022,4 25 0,0
21.01.2020 17:00:00 7,0 0,7 22 12 32 17 WNW 1022,9 28 0,0
21.01.2020 16:00:00 7,3 1,4 26 14 34 19 WNW 1022,4 25 0,0
21.01.2020 15:00:00 6,9 3,5 21 11 38 20 W 1022,6 13 0,0
21.01.2020 14:00:00 7,1 4,1 24 13 41 22 WZW 1022,3 12 0,0
21.01.2020 13:00:00 7,5 4,8 31 17 47 25 W 1022,7 11 0,0
21.01.2020 12:00:00 7,6 5,1 27 15 44 24 WZW 1023,7 11 0,0
21.01.2020 11:00:00 7,8 5,4 26 14 42 23 WZW 1024,1 11 0,0
21.01.2020 10:00:00 7,4 5,4 27 15 51 27 WZW 1022,4 11 0,0
21.01.2020 09:00:00 7,2 5,7 31 17 51 28 WZW 1022,3 10 0,0
21.01.2020 08:00:00 7,4 5,5 33 18 54 29 WZW 1022,4 9 0,0
21.01.2020 07:00:00 7,1 5,6 32 18 55 30 WZW 1022,0 8 0,0
21.01.2020 06:00:00 7,2 5,5 37 20 55 30 ZW 1022,2 8 0,0
21.01.2020 05:00:00 7,3 5,8 40 22 61 33 ZW 1022,7 8 0,0
21.01.2020 04:00:00 7,2 5,5 34 18 56 30 ZW 1023,1 8 0,0
21.01.2020 03:00:00 6,9 5,2 36 20 58 31 ZW 1023,4 8 0,0
21.01.2020 02:00:00 7,0 5,5 40 21 64 34 ZW 1023,8 8 0,0
21.01.2020 01:00:00 6,7 5,6 39 21 62 33 ZW 1024,2 6 0,0
21.01.2020 00:00:00 6,8 5,6 36 19 56 31 ZW 1025,0 6 0,0
20.01.2020 23:00:00 6,9 5,5 36 20 54 29 ZW 1025,8 7 0,0
20.01.2020 22:00:00 7,0 5,3 32 17 49 26 WZW 1026,8 8 0,0
20.01.2020 21:00:00 7,1 5,4 33 18 58 32 WZW 1027,5 8 0,0
20.01.2020 20:00:00 7,2 5,5 28 15 45 24 WZW 1027,8 8 0,0
20.01.2020 19:00:00 6,8 5,7 35 19 55 30 ZW 1028,3 8 0,0
20.01.2020 18:00:00 6,5 5,6 35 19 58 31 WZW 1028,1 8 0,0
20.01.2020 17:00:00 6,9 5,4 39 21 59 32 WZW 1028,5 9 0,0
20.01.2020 16:00:00 7,0 5,1 37 20 58 32 WZW 1029,0 10 0,0
20.01.2020 15:00:00 7,0 4,8 20 11 45 25 WZW 1029,7 11 0,0
20.01.2020 14:00:00 7,0 4,5 30 16 46 25 WZW 1030,5 10 0,0
20.01.2020 13:00:00 6,7 4,5 31 17 49 26 WZW 1031,3 10 0,0
20.01.2020 12:00:00 6,6 4,3 29 15 46 25 WZW 1031,7 9 0,0
20.01.2020 11:00:00 6,6 4,1 29 16 50 27 WZW 1032,0 10 0,0
20.01.2020 10:00:00 6,5 4,2 35 19 53 29 WZW 1031,6 9 0,0
20.01.2020 09:00:00 6,5 3,8 31 17 50 27 WZW 1031,9 10 0,0
20.01.2020 08:00:00 6,4 3,7 34 18 59 32 WZW 1032,0 12 0,0
20.01.2020 07:00:00 6,6 2,9 31 17 52 28 WZW 1032,4 14 0,0
20.01.2020 06:00:00 6,5 3,1 35 19 51 27 WZW 1032,5 13 0,0
20.01.2020 05:00:00 6,1 3,4 31 17 51 28 WZW 1033,3 13 0,0
20.01.2020 04:00:00 6,1 3,4 30 16 46 25 WZW 1034,0 17 0,0
20.01.2020 03:00:00 5,8 2,6 20 11 32 17 WZW 1034,7 17 0,1
20.01.2020 02:00:00 5,4 2,6 22 12 39 21 WZW 1035,2 17 0,0
20.01.2020 01:00:00 5,1 1,8 19 10 27 14 W 1035,4 19 0,0
20.01.2020 00:00:00 4,7 0,8 12 6 17 9 W 1035,3 19 0,0
19.01.2020 23:00:00 4,3 -0,5 9 5 17 9 W 1035,2 28 0,0
19.01.2020 22:00:00 4,4 0,0 12 6 21 11 W 1035,6 32 0,0
19.01.2020 21:00:00 4,5 -0,5 11 6 17 9 W 1035,2 29 0,0
19.01.2020 20:00:00 4,2 -1,4 5 3 11 6 W 1034,6 36 0,0
19.01.2020 19:00:00 3,8 -0,4 8 4 15 8 WNW 1034,3 26 0,0
19.01.2020 18:00:00 3,5 -0,3 9 5 14 7 W 1033,2 21 0,0
19.01.2020 17:00:00 4,1 -1,1 9 5 18 10 W 1032,5 27 0,0
19.01.2020 16:00:00 4,2 0,0 13 7 18 10 W 1031,4 27 0,0
19.01.2020 15:00:00 4,5 -0,1 12 7 17 9 WNW 1030,5 26 0,0
19.01.2020 14:00:00 5,2 -0,2 13 7 20 11 WNW 1030,1 26 0,0
19.01.2020 13:00:00 5,5 -1,2 13 7 23 12 NW 1030,1 22 0,0
19.01.2020 12:00:00 5,5 -1,4 18 10 32 18 NW 1029,6 38 0,0
19.01.2020 11:00:00 5,3 -1,8 22 12 32 17 NW 1028,2 38 0,0
19.01.2020 10:00:00 5,3 -2,1 16 9 28 15 NW 1027,1 30 0,0
19.01.2020 09:00:00 5,4 -1,1 19 10 29 15 WNW 1025,2 49 0,0
19.01.2020 08:00:00 5,2 0,2 18 10 25 13 W 1023,1 50 0,0
19.01.2020 07:00:00 5,0 0,8 15 8 27 15 W 1021,5 49 0,0
19.01.2020 06:00:00 5,1 0,8 21 11 - - W 1020,3 30 0,0
19.01.2020 05:00:00 5,2 0,6 22 12 33 18 W 1019,0 47 0,0
19.01.2020 04:00:00 5,1 0,5 17 9 32 17 W 1017,9 49 0,0
19.01.2020 03:00:00 5,3 0,3 22 12 37 20 W 1016,9 50 0,0
19.01.2020 02:00:00 5,4 0,8 22 12 34 18 W 1015,7 43 0,0
19.01.2020 01:00:00 5,3 1,4 22 12 32 17 W 1014,4 44 0,0
19.01.2020 00:00:00 5,3 0,9 19 10 36 19 W 1013,0 40 0,0
18.01.2020 23:00:00 5,5 1,4 24 13 38 21 W 1011,9 39 0,0
18.01.2020 22:00:00 5,7 1,6 22 12 39 21 W 1010,8 41 0,0
18.01.2020 21:00:00 6,0 1,9 29 16 42 23 W 1009,8 35 0,0
18.01.2020 20:00:00 6,2 2,3 31 17 46 25 W 1008,7 41 0,0
18.01.2020 19:00:00 6,1 2,9 29 16 44 24 W 1007,5 35 0,0
18.01.2020 18:00:00 5,8 3,3 22 12 35 19 W 1006,3 44 0,0
18.01.2020 17:00:00 5,6 3,4 27 15 40 21 W 1005,0 38 0,0
18.01.2020 16:00:00 6,0 4,0 21 11 29 16 W 1004,3 26 0,0
18.01.2020 15:00:00 5,9 5,0 10 6 19 10 WZW 1004,0 14 0,0
18.01.2020 14:00:00 5,8 4,3 14 8 28 15 WZW 1003,6 21 0,2
18.01.2020 13:00:00 5,8 4,9 20 11 34 19 WZW 1003,4 7 1,3

tt = temperatuur
td = dauwpunt
ff = windsnelheid
fx = windstoten
dd = windrichting
ppp = luchtdruk
vv = zicht
rr = neerslag

Weerstations in de omgeving